EW4378 Weather Reports


time (UTC)temp
C
wind
direction
speed
KPH
gust
KPH
rain 1hr
cm
rain 24hr
cm
rain mn
cm
humidity
%
barometer
mb
20260506193007 12 206 33.8 43.5 0.00 0.00 0.00 1 1009.2
20260506191502 12 200 33.8 43.5 0.00 0.00 0.00 1 1009.5
20260506190059 12 210 33.8 46.7 0.00 0.00 0.00 1 1009.4
20260506184559 13 213 38.6 48.3 0.00 0.00 0.00 1 1009.8
20260506183048 13 205 38.6 49.9 0.00 0.00 0.00 1 1009.8
20260506181545 13 191 37.0 46.7 0.00 0.00 0.00 1 1010.1
20260506180043 13 218 35.4 45.1 0.00 0.00 0.00 1 1010.4
20260506174536 13 205 35.4 45.1 0.00 0.00 0.00 1 1010.5
20260506173038 13 230 35.4 48.3 0.00 0.00 0.00 1 1010.9
20260506171526 13 200 37.0 49.9 0.00 0.00 0.00 1 1011.1
20260506170021 13 215 35.4 48.3 0.00 0.00 0.00 1 1011.0
20260506164517 13 234 40.2 48.3 0.00 0.00 0.00 1 1011.1
20260506163012 13 217 40.2 54.7 0.00 0.00 0.00 1 1011.1
20260506161508 13 215 43.5 53.1 0.00 0.00 0.00 1 1011.3
20260506160010 13 177 41.8 51.5 0.00 0.00 0.00 1 1011.5
20260506154559 13 234 38.6 51.5 0.00 0.00 0.00 1 1011.8
20260506153055 13 192 38.6 53.1 0.00 0.00 0.00 1 1011.9
20260506151549 13 197 33.8 46.7 0.00 0.00 0.00 1 1011.8
20260506150045 13 205 30.6 40.2 0.00 0.00 0.00 1 1012.0
20260506144540 13 229 32.2 45.1 0.00 0.00 0.00 1 1012.2
20260506143037 13 215 32.2 43.5 0.00 0.00 0.00 1 1012.2
20260506141531 13 220 30.6 43.5 0.00 0.00 0.00 1 1012.2
20260506140027 13 210 32.2 46.7 0.00 0.00 0.00 1 1012.4
20260506134522 13 218 32.2 40.2 0.00 0.00 0.00 1 1012.5
20260506133018 13 231 32.2 40.2 0.00 0.00 0.00 1 1012.5
20260506131518 13 217 27.4 37.0 0.00 0.00 0.00 1 1012.2
20260506130017 13 167 30.6 40.2 0.00 0.00 0.00 1 1012.2
20260506124515 13 210 32.2 41.8 0.00 0.00 0.00 1 1012.5
20260506123016 13 215 33.8 46.7 0.00 0.00 0.00 1 1012.6
20260506121508 13 203 37.0 49.9 0.00 0.00 0.00 1 1012.4
20260506120004 13 210 33.8 48.3 0.00 0.00 0.00 1 1012.4
20260506114503 13 204 33.8 45.1 0.00 0.00 0.00 1 1012.2
20260506113002 13 226 35.4 46.7 0.00 0.00 0.00 1 1012.5
20260506111559 12 268 32.2 41.8 0.00 0.00 0.00 1 1012.4
20260506110054 13 248 33.8 43.5 0.00 0.00 0.00 1 1012.4
20260506104549 13 225 30.6 43.5 0.00 0.00 0.00 1 1012.2
20260506103044 13 233 33.8 45.1 0.00 0.00 0.00 1 1012.4
20260506101540 13 181 35.4 51.5 0.00 0.00 0.00 1 1012.3
20260506100035 13 236 37.0 51.5 0.00 0.00 0.00 1 1012.2
20260506094535 13 214 35.4 46.7 0.00 0.00 0.00 1 1012.2
20260506093041 13 210 35.4 45.1 0.00 0.00 0.00 1 1012.1
20260506091524 13 221 35.4 49.9 0.00 0.00 0.00 1 1012.1
20260506090016 13 238 38.6 49.9 0.00 0.00 0.00 1 1012.2
20260506084511 13 210 37.0 48.3 0.00 0.00 0.00 1 1012.3
20260506083006 13 219 38.6 48.3 0.00 0.00 0.00 1 1012.4
20260506081504 13 234 35.4 49.9 0.00 0.00 0.00 1 1012.6
20260506080112 13 226 37.0 48.3 0.00 0.00 0.00 1 1012.5
20260506073054 13 242 33.8 45.1 0.00 0.00 0.00 1 1013.1
20260506071550 13 219 35.4 49.9 0.00 0.00 0.00 1 1012.9
20260506061535 13 231 40.2 48.3 0.00 0.00 0.00 1 1012.6
20260506044512 14 233 35.4 48.3 0.00 0.00 0.00 1 1013.0
20260506043100 14 225 37.0 51.5 0.00 0.00 0.00 1 1013.0
20260506041558 14 207 41.8 49.9 0.00 0.00 0.00 1 1013.1
20260506040052 14 226 38.6 48.3 0.00 0.00 0.00 1 1013.2
20260506034550 13 232 35.4 43.5 0.00 0.00 0.00 1 1013.4
20260506033045 13 230 32.2 41.8 0.00 0.00 0.00 1 1013.5
20260506031554 13 240 30.6 38.6 0.00 0.00 0.00 1 1013.4
20260506030043 13 237 32.2 38.6 0.00 0.00 0.00 1 1013.5
20260506024535 13 243 30.6 43.5 0.00 0.00 0.00 1 1013.5
20260506023026 13 238 35.4 43.5 0.00 0.00 0.00 1 1013.4
20260506021522 13 231 35.4 45.1 0.00 0.00 0.00 1 1013.4
20260506020021 13 232 35.4 45.1 0.00 0.00 0.00 1 1013.3
20260506014520 13 225 38.6 48.3 0.00 0.00 0.00 1 1013.1
20260506013023 13 232 37.0 45.1 0.00 0.00 0.00 1 1013.1
20260506011522 13 237 40.2 49.9 0.00 0.00 0.00 1 1012.9
20260506010018 13 229 45.1 56.3 0.00 0.00 0.00 1 1012.7
20260506004518 14 236 45.1 59.5 0.00 0.00 0.00 1 1012.3
20260506003016 14 224 46.7 64.4 0.00 0.00 0.00 1 1012.1
20260506001517 14 233 46.7 56.3 0.00 0.00 0.00 1 1012.0
20260506000014 14 233 46.7 57.9 0.00 0.00 0.00 1 1011.9
20260505234522 14 218 43.5 59.5 0.00 0.00 0.00 1 1011.5
20260505233006 14 266 46.7 66.0 0.00 0.00 0.00 1 1011.3
20260505231600 14 214 46.7 64.4 0.00 0.00 0.00 1 1011.2
20260505230056 14 256 51.5 62.8 0.00 0.00 0.00 1 1010.9
20260505224552 14 237 46.7 64.4 0.00 0.00 0.00 1 1010.9
20260505223059 14 193 45.1 67.6 0.00 0.00 0.00 1 1010.8
20260505221556 14 219 49.9 66.0 0.00 0.00 0.00 1 1010.8
20260505220040 13 217 45.1 57.9 0.00 0.00 0.00 1 1010.8
20260505214539 13 232 45.1 56.3 0.00 0.00 0.00 1 1010.5
20260505213028 13 207 45.1 59.5 0.00 0.00 0.00 1 1010.5
20260505211528 13 204 48.3 62.8 0.00 0.00 0.00 1 1010.4
20260505210030 14 224 43.5 56.3 0.00 0.00 0.00 1 1010.2
20260505204528 14 276 41.8 54.7 0.00 0.00 0.00 1 1010.3
20260505203024 13 193 38.6 49.9 0.00 0.00 0.00 1 1010.4
20260505201517 13 214 38.6 53.1 0.00 0.00 0.00 1 1010.5
20260505200021 13 215 38.6 51.5 0.00 0.00 0.00 1 1010.6
20260505194507 13 257 38.6 48.3 0.00 0.00 0.00 1 1011.0